,,Stat5,,Stat1,,Stat2,,Stat3,,Stat4,,Wind1,,Wind1,
time,status,PA1M_AVG,status,PR1M_SUM,status,RH1M_AVG,status,SR1M_AVG,status,TA1M_AVG,status,W1dAve1m,status,W1sAve1m,
2000-11-23, 00:00:00,VALID,917.254,VALID,0,VALID,100,VALID,-0.0169808,VALID,18.4612,VALID,234,VALID,0.273226,
2000-11-23, 00:01:01,VALID,917.246,VALID,0,VALID,100,VALID,0,VALID,18.4709,VALID,162,VALID,0.11482,
2000-11-23, 00:02:01,VALID,917.215,VALID,0,VALID,100,VALID,-0.0339617,VALID,18.4872,VALID,103,VALID,1.29025,
2000-11-23, 00:03:00,VALID,917.194,VALID,0,VALID,100,VALID,-0.0339617,VALID,18.5036,VALID,54,VALID,0.519748,
2000-11-23, 00:04:01,VALID,917.187,VALID,0,VALID,100,VALID,0,VALID,18.517,VALID,185,VALID,0.027114,
2000-11-23, 00:05:00,VALID,917.192,VALID,0,VALID,100,VALID,-0.0339617,VALID,18.5133,VALID,229,VALID,0.455025,
2000-11-23, 00:06:01,VALID,917.171,VALID,0,VALID,100,VALID,0,VALID,18.5292,VALID,113,VALID,0.521998,
2000-11-23, 00:07:00,VALID,917.145,VALID,0,VALID,100,VALID,0,VALID,18.5327,VALID,92,VALID,0.781672,
2000-11-23, 00:08:01,VALID,917.134,VALID,0,VALID,100,VALID,0,VALID,18.5491,VALID,204,VALID,0.815378,
2000-11-23, 00:09:01,VALID,917.137,VALID,0,VALID,100,VALID,-0.0509425,VALID,18.5493,VALID,221,VALID,0.785045,
2000-11-23, 00:10:01,VALID,917.111,VALID,0,VALID,100,VALID,-0.0169808,VALID,18.5421,VALID,90,VALID,0.731497,
2000-11-23, 00:11:00,VALID,917.081,VALID,0,VALID,100,VALID,-0.0339617,VALID,18.5715,VALID,17,VALID,0.278212,
2000-11-23, 00:12:00,VALID,917.07,VALID,0,VALID,100,VALID,-0.0339617,VALID,18.568,VALID,168,VALID,0.330592,
2000-11-23, 00:13:01,VALID,917.055,VALID,0,VALID,100,VALID,-0.0169808,VALID,18.5712,VALID,206,VALID,0.11899,
2000-11-23, 00:14:01,VALID,917.033,VALID,0,VALID,100,VALID,-0.0509425,VALID,18.5881,VALID,158,VALID,0.75918,
2000-11-23, 00:15:01,VALID,917.02,VALID,0,VALID,100,VALID,-0.0509425,VALID,18.5978,VALID,104,VALID,0.884924,
2000-11-23, 00:16:01,VALID,917.013,VALID,0,VALID,100,VALID,-0.0339617,VALID,18.6206,VALID,80,VALID,0.878125,
2000-11-23, 00:17:01,VALID,917.018,VALID,0,VALID,100,VALID,-0.0169808,VALID,18.6137,VALID,69,VALID,1.3131,
2000-11-23, 00:18:01,VALID,917.008,VALID,0,VALID,100,VALID,0,VALID,18.6132,VALID,262,VALID,0.890831,
2000-11-23, 00:19:01,VALID,917.018,VALID,0,VALID,100,VALID,-0.0339617,VALID,18.6231,VALID,101,VALID,0.886418,
2000-11-23, 00:20:01,VALID,917,VALID,0,VALID,100,VALID,-0.0169808,VALID,18.6457,VALID,93,VALID,1.61637,
2000-11-23, 00:21:01,VALID,917.022,VALID,0.2,VALID,100,VALID,-0.0509425,VALID,18.6457,VALID,145,VALID,0.851362,
2000-11-23, 00:22:01,VALID,917.021,VALID,0,VALID,100,VALID,0,VALID,18.6554,VALID,186,VALID,0.602148,
2000-11-23, 00:23:01,VALID,916.98,VALID,0,VALID,100,VALID,-0.0169808,VALID,18.652,VALID,65,VALID,0.901605,
2000-11-23, 00:24:01,VALID,916.947,VALID,0,VALID,100,VALID,0,VALID,18.6651,VALID,15,VALID,0.954687,
2000-11-23, 00:25:01,VALID,916.933,VALID,0,VALID,100,VALID,0,VALID,18.6746,VALID,66,VALID,1.53806,
2000-11-23, 00:26:01,VALID,916.882,VALID,0,VALID,100,VALID,-0.0169808,VALID,18.6907,VALID,79,VALID,1.08039,
2000-11-23, 00:27:01,VALID,916.909,VALID,0,VALID,100,VALID,-0.0169808,VALID,18.6905,VALID,125,VALID,0.549679,
2000-11-23, 00:28:01,VALID,916.859,VALID,0.2,VALID,100,VALID,0.0169808,VALID,18.6843,VALID,19,VALID,1.69593,
2000-11-23, 00:29:01,VALID,916.857,VALID,0,VALID,100,VALID,0,VALID,18.6907,VALID,190,VALID,0.851763,
2000-11-23, 00:30:01,VALID,916.84,VALID,0,VALID,100,VALID,0,VALID,18.691,VALID,68,VALID,0.956445,
2000-11-23, 00:31:01,VALID,916.835,VALID,0,VALID,100,VALID,0,VALID,18.681,VALID,268,VALID,0.563133,
2000-11-23, 00:32:01,VALID,916.851,VALID,0.2,VALID,100,VALID,-0.0169808,VALID,18.7041,VALID,74,VALID,1.32246,
2000-11-23, 00:33:01,VALID,916.829,VALID,0,VALID,100,VALID,-0.0339617,VALID,18.6974,VALID,285,VALID,0.680088,
2000-11-23, 00:34:00,VALID,916.848,VALID,0,VALID,100,VALID,-0.0509425,VALID,18.7069,VALID,124,VALID,0.332031,
2000-11-23, 00:35:00,VALID,916.838,VALID,0,VALID,100,VALID,0,VALID,18.7133,VALID,272,VALID,0.663462,
2000-11-23, 00:36:00,VALID,916.848,VALID,0,VALID,100,VALID,-0.0169808,VALID,18.7228,VALID,127,VALID,0.861431,
2000-11-23, 00:37:00,VALID,916.817,VALID,0,VALID,100,VALID,0,VALID,18.7256,VALID,101,VALID,1.16286,
2000-11-23, 00:38:00,VALID,916.799,VALID,0,VALID,100,VALID,-0.0339617,VALID,18.736,VALID,344,VALID,1.58516,
2000-11-23, 00:39:00,VALID,916.809,VALID,0,VALID,100,VALID,0,VALID,18.7327,VALID,100,VALID,1.11719,
2000-11-23, 00:40:00,VALID,916.825,VALID,0,VALID,100,VALID,-0.0169808,VALID,18.7362,VALID,63,VALID,0.50625,
2000-11-23, 00:41:00,VALID,916.821,VALID,0,VALID,100,VALID,0,VALID,18.7295,VALID,114,VALID,1.02023,
2000-11-23, 00:42:00,VALID,916.8,VALID,0,VALID,100,VALID,0,VALID,18.7523,VALID,110,VALID,1.1875,
2000-11-23, 00:43:00,VALID,916.786,VALID,0,VALID,100,VALID,0,VALID,18.7553,VALID,178,VALID,0.265825,
2000-11-23, 00:44:00,VALID,916.786,VALID,0,VALID,100,VALID,0,VALID,18.7516,VALID,224,VALID,0.175576,
2000-11-23, 00:45:00,VALID,916.756,VALID,0,VALID,100,VALID,-0.0169808,VALID,18.7653,VALID,210,VALID,0,
2000-11-23, 00:46:00,VALID,916.737,VALID,0,VALID,100,VALID,0,VALID,18.7616,VALID,48,VALID,0.696289,
2000-11-23, 00:47:00,VALID,916.71,VALID,0,VALID,100,VALID,-0.0169808,VALID,18.7489,VALID,85,VALID,1.10389,
2000-11-23, 00:48:00,VALID,916.711,VALID,0,VALID,100,VALID,-0.0169808,VALID,18.765,VALID,84,VALID,1.2957,
2000-11-23, 00:49:00,VALID,916.701,VALID,0,VALID,100,VALID,0,VALID,18.775,VALID,73,VALID,0.310697,
2000-11-23, 00:50:00,VALID,916.692,VALID,0,VALID,100,VALID,-0.0169808,VALID,18.771,VALID,142,VALID,0.1544,
2000-11-23, 00:51:00,VALID,916.681,VALID,0,VALID,100,VALID,-0.0169808,VALID,18.7745,VALID,162,VALID,0.106571,
2000-11-23, 00:52:00,VALID,916.673,VALID,0,VALID,100,VALID,-0.0339617,VALID,18.7713,VALID,268,VALID,0.204153,
2000-11-23, 00:53:00,VALID,916.663,VALID,0,VALID,100,VALID,0,VALID,18.7549,VALID,274,VALID,0.624599,
2000-11-23, 00:54:00,VALID,916.633,VALID,0,VALID,100,VALID,-0.0339617,VALID,18.7551,VALID,327,VALID,0.322461,
2000-11-23, 00:55:00,VALID,916.602,VALID,0,VALID,100,VALID,-0.0169808,VALID,18.765,VALID,164,VALID,0.195313,
2000-11-23, 00:56:00,VALID,916.58,VALID,0,VALID,100,VALID,-0.0339617,VALID,18.7646,VALID,224,VALID,0,
2000-11-23, 00:57:00,VALID,916.569,VALID,0,VALID,100,VALID,-0.0169808,VALID,18.7549,VALID,156,VALID,0,
2000-11-23, 00:58:00,VALID,916.536,VALID,0,VALID,100,VALID,-0.0339617,VALID,18.7581,VALID,107,VALID,0.841077,
2000-11-23, 00:59:00,VALID,916.514,VALID,0,VALID,100,VALID,0,VALID,18.765,VALID,56,VALID,0.336939,
2000-11-23, 01:00:00,VALID,916.487,VALID,0,VALID,100,VALID,0,VALID,18.7484,VALID,80,VALID,0.613692,
2000-11-23, 01:01:00,VALID,916.444,VALID,0,VALID,100,VALID,0,VALID,18.7392,VALID,95,VALID,1.05669,
2000-11-23, 01:02:00,VALID,916.4,VALID,0,VALID,100,VALID,0.0169808,VALID,18.7325,VALID,87,VALID,0.966406,
2000-11-23, 01:03:00,VALID,916.381,VALID,0,VALID,100,VALID,0,VALID,18.7429,VALID,83,VALID,1.14886,
2000-11-23, 01:04:00,VALID,916.361,VALID,0,VALID,100,VALID,-0.0169808,VALID,18.7295,VALID,89,VALID,1.96094,
2000-11-23, 01:05:00,VALID,916.342,VALID,0,VALID,100,VALID,0,VALID,18.7163,VALID,90,VALID,1.60216,
2000-11-23, 01:06:00,VALID,916.339,VALID,0,VALID,100,VALID,-0.0339617,VALID,18.7193,VALID,94,VALID,1.95127,
2000-11-23, 01:07:00,VALID,916.356,VALID,0,VALID,100,VALID,0,VALID,18.7092,VALID,96,VALID,1.78586,
2000-11-23, 01:08:00,VALID,916.353,VALID,0,VALID,100,VALID,0,VALID,18.7133,VALID,86,VALID,1.6102,
2000-11-23, 01:09:00,VALID,916.345,VALID,0,VALID,100,VALID,-0.0169808,VALID,18.7173,VALID,79,VALID,1.53806,
2000-11-23, 01:10:00,VALID,916.352,VALID,0,VALID,100,VALID,-0.0339617,VALID,18.7,VALID,71,VALID,1.05254,
2000-11-23, 01:11:00,VALID,916.367,VALID,0,VALID,100,VALID,-0.0169808,VALID,18.7,VALID,79,VALID,1.76182,
2000-11-23, 01:12:00,VALID,916.383,VALID,0,VALID,100,VALID,-0.0339617,VALID,18.6873,VALID,87,VALID,1.82383,
2000-11-23, 01:13:00,VALID,916.412,VALID,0,VALID,100,VALID,0,VALID,18.7004,VALID,84,VALID,1.02724,
2000-11-23, 01:14:00,VALID,916.426,VALID,0,VALID,100,VALID,-0.0169808,VALID,18.7168,VALID,107,VALID,0.46176,
2000-11-23, 01:15:00,VALID,916.423,VALID,0,VALID,100,VALID,0,VALID,18.7198,VALID,86,VALID,0.435497,
2000-11-23, 01:16:00,VALID,916.421,VALID,0,VALID,100,VALID,0,VALID,18.726,VALID,100,VALID,0.914885,
2000-11-23, 01:17:00,VALID,916.405,VALID,0.2,VALID,100,VALID,-0.0509425,VALID,18.736,VALID,88,VALID,1.03926,
2000-11-23, 01:18:00,VALID,916.409,VALID,0,VALID,100,VALID,-0.0339617,VALID,18.7496,VALID,154,VALID,0.285547,
2000-11-23, 01:19:00,VALID,916.438,VALID,0.2,VALID,100,VALID,-0.101885,VALID,18.7468,VALID,237,VALID,0.959671,
2000-11-23, 01:20:00,VALID,916.407,VALID,0.2,VALID,100,VALID,-0.101885,VALID,18.7406,VALID,350,VALID,1.15527,
2000-11-23, 01:21:00,VALID,916.448,VALID,0,VALID,100,VALID,-0.0849042,VALID,18.7113,VALID,19,VALID,1.81951,
2000-11-23, 01:22:00,VALID,916.382,VALID,0.2,VALID,100,VALID,-0.101885,VALID,18.6497,VALID,75,VALID,1.65604,
2000-11-23, 01:23:00,VALID,916.409,VALID,0,VALID,100,VALID,-0.118866,VALID,18.6211,VALID,23,VALID,1.35597,
2000-11-23, 01:24:00,VALID,916.369,VALID,0.2,VALID,100,VALID,-0.101885,VALID,18.6211,VALID,142,VALID,1.25781,
2000-11-23, 01:25:00,VALID,916.39,VALID,0.2,VALID,100,VALID,-0.101885,VALID,18.6012,VALID,186,VALID,1.59615,
2000-11-23, 01:26:00,VALID,916.296,VALID,0,VALID,100,VALID,-0.101885,VALID,18.5662,VALID,349,VALID,1.0377,
2000-11-23, 01:27:00,VALID,916.333,VALID,0.2,VALID,100,VALID,-0.101885,VALID,18.5237,VALID,166,VALID,1.68497,
2000-11-23, 01:28:00,VALID,916.317,VALID,0,VALID,100,VALID,-0.101885,VALID,18.4789,VALID,65,VALID,2.0293,
2000-11-23, 01:29:00,VALID,916.275,VALID,0,VALID,100,VALID,-0.101885,VALID,18.4367,VALID,112,VALID,1.04988,
2000-11-23, 01:30:00,VALID,916.311,VALID,0.2,VALID,100,VALID,-0.101885,VALID,18.4469,VALID,93,VALID,2.06168,
2000-11-23, 01:31:00,VALID,916.266,VALID,0,VALID,100,VALID,-0.101885,VALID,18.4335,VALID,337,VALID,1.40605,
2000-11-23, 01:32:00,VALID,916.255,VALID,0.2,VALID,100,VALID,-0.101885,VALID,18.4243,VALID,182,VALID,2.13549,
2000-11-23, 01:33:00,VALID,916.225,VALID,0,VALID,100,VALID,-0.0509425,VALID,18.4169,VALID,76,VALID,2.24519,
2000-11-23, 01:34:00,VALID,916.237,VALID,0,VALID,100,VALID,-0.0169808,VALID,18.4162,VALID,61,VALID,1.5625,
2000-11-23, 01:35:00,VALID,916.246,VALID,0.2,VALID,100,VALID,0,VALID,18.4194,VALID,77,VALID,0.993666,
2000-11-23, 01:36:00,VALID,916.266,VALID,0,VALID,100,VALID,-0.0169808,VALID,18.4323,VALID,156,VALID,0.704492,
2000-11-23, 01:37:00,VALID,916.271,VALID,0.2,VALID,100,VALID,0,VALID,18.4159,VALID,62,VALID,2.18109,
2000-11-23, 01:38:00,VALID,916.219,VALID,0,VALID,100,VALID,-0.0169808,VALID,18.4063,VALID,1,VALID,2.22348,
2000-11-23, 01:39:00,VALID,916.202,VALID,0.2,VALID,100,VALID,0.0169808,VALID,18.4127,VALID,90,VALID,1.04828,
2000-11-23, 01:40:00,VALID,916.229,VALID,0,VALID,100,VALID,-0.0169808,VALID,18.4328,VALID,96,VALID,1.44737,
2000-11-23, 01:41:00,VALID,916.204,VALID,0,VALID,100,VALID,0,VALID,18.442,VALID,104,VALID,1.46454,
2000-11-23, 01:42:00,VALID,916.173,VALID,0,VALID,100,VALID,0.0169808,VALID,18.4418,VALID,283,VALID,0.286914,
2000-11-23, 01:43:00,VALID,916.174,VALID,0.2,VALID,100,VALID,-0.0169808,VALID,18.4323,VALID,182,VALID,0.0586993,
2000-11-23, 01:44:00,VALID,916.163,VALID,0,VALID,100,VALID,-0.0339617,VALID,18.4286,VALID,193,VALID,0.275,
2000-11-23, 01:45:00,VALID,916.138,VALID,0.2,VALID,100,VALID,-0.0339617,VALID,18.4517,VALID,207,VALID,0.602163,
2000-11-23, 01:46:00,VALID,916.125,VALID,0,VALID,100,VALID,0.0169808,VALID,18.4584,VALID,114,VALID,0.836349,
2000-11-23, 01:47:00,VALID,916.151,VALID,0,VALID,100,VALID,0,VALID,18.4545,VALID,117,VALID,0.770833,
2000-11-23, 01:48:00,VALID,916.132,VALID,0.2,VALID,100,VALID,0,VALID,18.4676,VALID,98,VALID,0.626028,
2000-11-23, 01:49:00,VALID,916.106,VALID,0,VALID,100,VALID,0.0169808,VALID,18.484,VALID,113,VALID,0.404247,
2000-11-23, 01:50:00,VALID,916.143,VALID,0,VALID,100,VALID,0,VALID,18.4805,VALID,114,VALID,0,
2000-11-23, 01:51:00,VALID,916.144,VALID,0,VALID,100,VALID,0.0169808,VALID,18.4775,VALID,106,VALID,1.18856,
2000-11-23, 01:52:00,VALID,916.13,VALID,0,VALID,100,VALID,0,VALID,18.4738,VALID,75,VALID,1.10234,
2000-11-23, 01:53:00,VALID,916.124,VALID,0.2,VALID,100,VALID,0,VALID,18.4771,VALID,59,VALID,1.09956,
2000-11-23, 01:54:00,VALID,916.119,VALID,0,VALID,100,VALID,0,VALID,18.4803,VALID,64,VALID,1.08923,
2000-11-23, 01:55:00,VALID,916.12,VALID,0,VALID,100,VALID,0,VALID,18.4842,VALID,350,VALID,0.419471,
2000-11-23, 01:56:00,VALID,916.12,VALID,0,VALID,100,VALID,0.0169808,VALID,18.4775,VALID,61,VALID,1.16694,
2000-11-23, 01:57:00,VALID,916.103,VALID,0.2,VALID,100,VALID,0.0169808,VALID,18.484,VALID,95,VALID,1.65104,
2000-11-23, 01:58:00,VALID,916.057,VALID,0,VALID,100,VALID,0.0169808,VALID,18.4835,VALID,100,VALID,1.70371,
2000-11-23, 01:59:00,VALID,916.071,VALID,0,VALID,100,VALID,0,VALID,18.4939,VALID,82,VALID,0.712204,
2000-11-23, 02:00:00,VALID,916.078,VALID,0,VALID,100,VALID,0,VALID,18.4577,VALID,342,VALID,1.08242,
2000-11-23, 02:01:00,VALID,916.023,VALID,0,VALID,100,VALID,0,VALID,18.4748,VALID,92,VALID,0.915665,
2000-11-23, 02:02:00,VALID,916.034,VALID,0.2,VALID,100,VALID,0,VALID,18.4711,VALID,115,VALID,0.498561,
2000-11-23, 02:03:00,VALID,916.015,VALID,0,VALID,100,VALID,0,VALID,18.4706,VALID,156,VALID,0.582131,
2000-11-23, 02:04:00,VALID,916.027,VALID,0,VALID,100,VALID,0,VALID,18.4706,VALID,155,VALID,0.485814,
2000-11-23, 02:05:00,VALID,916.011,VALID,0,VALID,100,VALID,0.0169808,VALID,18.4741,VALID,141,VALID,1.65124,
2000-11-23, 02:06:00,VALID,915.947,VALID,0,VALID,100,VALID,0,VALID,18.4674,VALID,91,VALID,2.51543,
2000-11-23, 02:07:00,VALID,915.943,VALID,0,VALID,100,VALID,0,VALID,18.4738,VALID,97,VALID,1.13133,
2000-11-23, 02:08:00,VALID,915.934,VALID,0,VALID,100,VALID,0,VALID,18.4868,VALID,96,VALID,1.74473,
2000-11-23, 02:09:00,VALID,915.913,VALID,0.2,VALID,100,VALID,0,VALID,18.5004,VALID,313,VALID,1.02784,
2000-11-23, 02:10:00,VALID,915.87,VALID,0,VALID,100,VALID,0.0339617,VALID,18.4905,VALID,96,VALID,2.42496,
2000-11-23, 02:11:00,VALID,915.839,VALID,0,VALID,100,VALID,0.0169808,VALID,18.4808,VALID,92,VALID,1.53986,
2000-11-23, 02:12:00,VALID,915.857,VALID,0,VALID,100,VALID,0,VALID,18.4612,VALID,17,VALID,0.891653,
2000-11-23, 02:13:00,VALID,915.881,VALID,0,VALID,100,VALID,-0.0169808,VALID,18.4579,VALID,75,VALID,0.815505,
2000-11-23, 02:14:00,VALID,915.839,VALID,0.2,VALID,100,VALID,0.0339617,VALID,18.4745,VALID,90,VALID,1.19492,
2000-11-23, 02:15:00,VALID,915.827,VALID,0,VALID,100,VALID,0.0169808,VALID,18.4452,VALID,55,VALID,1.00084,
2000-11-23, 02:16:00,VALID,915.793,VALID,0,VALID,100,VALID,0,VALID,18.4356,VALID,80,VALID,1.16367,
2000-11-23, 02:17:00,VALID,915.817,VALID,0,VALID,100,VALID,0,VALID,18.4358,VALID,118,VALID,0.623598,
2000-11-23, 02:18:00,VALID,915.804,VALID,0.2,VALID,100,VALID,-0.0169808,VALID,18.4395,VALID,99,VALID,1.49095,
2000-11-23, 02:19:00,VALID,915.781,VALID,0,VALID,100,VALID,0,VALID,18.4584,VALID,103,VALID,2.03165,
2000-11-23, 02:20:00,VALID,915.76,VALID,0,VALID,100,VALID,0,VALID,18.4711,VALID,99,VALID,1.51213,
2000-11-23, 02:21:00,VALID,915.743,VALID,0,VALID,100,VALID,0,VALID,18.4681,VALID,96,VALID,1.58033,
2000-11-23, 02:22:00,VALID,915.768,VALID,0.2,VALID,100,VALID,0,VALID,18.4676,VALID,108,VALID,0.398828,
2000-11-23, 02:23:00,VALID,915.769,VALID,0,VALID,100,VALID,0,VALID,18.4679,VALID,47,VALID,0.1231,
2000-11-23, 02:24:00,VALID,915.771,VALID,0.2,VALID,100,VALID,0,VALID,18.4612,VALID,75,VALID,0.0896484,
2000-11-23, 02:25:00,VALID,915.725,VALID,0,VALID,100,VALID,0,VALID,18.4646,VALID,122,VALID,0.673678,
2000-11-23, 02:26:00,VALID,915.733,VALID,0,VALID,100,VALID,-0.0169808,VALID,18.4743,VALID,103,VALID,0.688734,
2000-11-23, 02:27:00,VALID,915.686,VALID,0.2,VALID,100,VALID,-0.0169808,VALID,18.4808,VALID,190,VALID,0.569712,
2000-11-23, 02:28:00,VALID,915.678,VALID,0,VALID,100,VALID,0,VALID,18.4909,VALID,99,VALID,1.84046,
2000-11-23, 02:29:00,VALID,915.687,VALID,0,VALID,100,VALID,-0.0169808,VALID,18.4845,VALID,96,VALID,2.08413,
2000-11-23, 02:30:00,VALID,915.655,VALID,0,VALID,100,VALID,0,VALID,18.4778,VALID,210,VALID,0.467383,
2000-11-23, 02:31:00,VALID,915.641,VALID,0,VALID,100,VALID,-0.0339617,VALID,18.4842,VALID,100,VALID,1.09037,
2000-11-23, 02:32:00,VALID,915.604,VALID,0,VALID,100,VALID,0,VALID,18.4803,VALID,100,VALID,2.18203,
2000-11-23, 02:33:00,VALID,915.575,VALID,0,VALID,100,VALID,0.0169808,VALID,18.5039,VALID,86,VALID,1.18209,
2000-11-23, 02:34:00,VALID,915.561,VALID,0.2,VALID,100,VALID,0,VALID,18.5013,VALID,273,VALID,0.250822,
2000-11-23, 02:35:00,VALID,915.547,VALID,0,VALID,100,VALID,0,VALID,18.487,VALID,138,VALID,0.717348,
2000-11-23, 02:36:00,VALID,915.557,VALID,0,VALID,100,VALID,0,VALID,18.4939,VALID,95,VALID,1.15152,
2000-11-23, 02:37:00,VALID,915.581,VALID,0,VALID,100,VALID,0,VALID,18.5004,VALID,56,VALID,1.05762,
2000-11-23, 02:38:00,VALID,915.626,VALID,0,VALID,100,VALID,0,VALID,18.5039,VALID,357,VALID,0.398242,
2000-11-23, 02:39:00,VALID,915.608,VALID,0,VALID,100,VALID,0,VALID,18.5039,VALID,90,VALID,1.31229,
2000-11-23, 02:40:00,VALID,915.594,VALID,0,VALID,100,VALID,0.0169808,VALID,18.5066,VALID,113,VALID,0.957422,
2000-11-23, 02:41:00,VALID,915.583,VALID,0,VALID,100,VALID,0,VALID,18.5101,VALID,148,VALID,1.10597,
2000-11-23, 02:42:00,VALID,915.524,VALID,0,VALID,100,VALID,0,VALID,18.5198,VALID,95,VALID,2.53351,
2000-11-23, 02:43:00,VALID,915.543,VALID,0,VALID,100,VALID,-0.0169808,VALID,18.523,VALID,105,VALID,1.72496,
2000-11-23, 02:44:00,VALID,915.483,VALID,0,VALID,100,VALID,0,VALID,18.526,VALID,88,VALID,1.87171,
2000-11-23, 02:45:00,VALID,915.478,VALID,0,VALID,100,VALID,-0.0339617,VALID,18.5262,VALID,143,VALID,0.933694,
2000-11-23, 02:46:00,VALID,915.454,VALID,0,VALID,100,VALID,-0.0169808,VALID,18.5098,VALID,95,VALID,1.77148,
2000-11-23, 02:47:00,VALID,915.427,VALID,0,VALID,100,VALID,0.0169808,VALID,18.5068,VALID,50,VALID,1.65097,
2000-11-23, 02:48:00,VALID,915.427,VALID,0,VALID,100,VALID,-0.0339617,VALID,18.5075,VALID,82,VALID,1.81543,
2000-11-23, 02:49:00,VALID,915.349,VALID,0,VALID,100,VALID,-0.0849042,VALID,18.5043,VALID,94,VALID,1.47075,
2000-11-23, 02:50:00,VALID,915.341,VALID,0.2,VALID,100,VALID,-0.101885,VALID,18.5274,VALID,94,VALID,2.2979,
2000-11-23, 02:51:00,VALID,915.365,VALID,0,VALID,100,VALID,-0.101885,VALID,18.5272,VALID,98,VALID,1.69812,
2000-11-23, 02:52:00,VALID,915.355,VALID,0,VALID,100,VALID,-0.118866,VALID,18.5403,VALID,39,VALID,1.16715,
2000-11-23, 02:53:00,VALID,915.365,VALID,0,VALID,100,VALID,-0.118866,VALID,18.5242,VALID,38,VALID,1.54968,
2000-11-23, 02:54:00,VALID,915.356,VALID,0,VALID,100,VALID,-0.101885,VALID,18.5175,VALID,289,VALID,0.35918,
2000-11-23, 02:55:00,VALID,915.372,VALID,0,VALID,100,VALID,-0.101885,VALID,18.5209,VALID,101,VALID,1.02724,
2000-11-23, 02:56:00,VALID,915.381,VALID,0,VALID,100,VALID,-0.101885,VALID,18.5309,VALID,139,VALID,0.474023,
2000-11-23, 02:57:00,VALID,915.36,VALID,0,VALID,100,VALID,-0.101885,VALID,18.5403,VALID,58,VALID,1.08133,
2000-11-23, 02:58:00,VALID,915.326,VALID,0,VALID,100,VALID,-0.101885,VALID,18.5597,VALID,136,VALID,0.763775,
2000-11-23, 02:59:00,VALID,915.289,VALID,0,VALID,100,VALID,-0.101885,VALID,18.5699,VALID,114,VALID,1.11298,
2000-11-23, 03:00:00,VALID,915.317,VALID,0,VALID,100,VALID,-0.101885,VALID,18.5595,VALID,93,VALID,1.31928,
2000-11-23, 03:01:00,VALID,915.305,VALID,0,VALID,100,VALID,-0.101885,VALID,18.5758,VALID,181,VALID,0.359575,
2000-11-23, 03:02:00,VALID,915.321,VALID,0.2,VALID,100,VALID,-0.101885,VALID,18.5855,VALID,169,VALID,1.19512,
2000-11-23, 03:03:00,VALID,915.271,VALID,0,VALID,100,VALID,-0.0679233,VALID,18.5853,VALID,176,VALID,0.768581,
2000-11-23, 03:04:00,VALID,915.289,VALID,0,VALID,100,VALID,0,VALID,18.5747,VALID,229,VALID,1.03848,
2000-11-23, 03:05:00,VALID,915.33,VALID,0,VALID,100,VALID,0,VALID,18.568,VALID,43,VALID,0.814103,
2000-11-23, 03:06:00,VALID,915.331,VALID,0,VALID,100,VALID,0,VALID,18.5777,VALID,296,VALID,0.725329,
2000-11-23, 03:07:00,VALID,915.297,VALID,0,VALID,100,VALID,-0.0169808,VALID,18.5807,VALID,140,VALID,0.689103,
2000-11-23, 03:08:00,VALID,915.329,VALID,0,VALID,100,VALID,0,VALID,18.5975,VALID,43,VALID,1.2206,
2000-11-23, 03:09:00,VALID,915.358,VALID,0,VALID,100,VALID,-0.0169808,VALID,18.5971,VALID,1,VALID,1.91526,
2000-11-23, 03:10:00,VALID,915.315,VALID,0,VALID,100,VALID,0,VALID,18.5809,VALID,11,VALID,0.797461,
2000-11-23, 03:11:00,VALID,915.346,VALID,0.2,VALID,100,VALID,-0.0169808,VALID,18.5844,VALID,117,VALID,0.578758,
2000-11-23, 03:12:00,VALID,915.363,VALID,0,VALID,100,VALID,0,VALID,18.5804,VALID,234,VALID,0.992969,
2000-11-23, 03:13:00,VALID,915.361,VALID,0,VALID,100,VALID,-0.0169808,VALID,18.5744,VALID,52,VALID,2.5603,
2000-11-23, 03:14:00,VALID,915.359,VALID,0,VALID,100,VALID,-0.0169808,VALID,18.5648,VALID,94,VALID,1.62685,
2000-11-23, 03:15:00,VALID,915.373,VALID,0,VALID,100,VALID,-0.0169808,VALID,18.5779,VALID,99,VALID,1.56731,
2000-11-23, 03:16:00,VALID,915.389,VALID,0,VALID,100,VALID,0,VALID,18.5844,VALID,104,VALID,1.73499,
2000-11-23, 03:17:00,VALID,915.345,VALID,0,VALID,100,VALID,0,VALID,18.5809,VALID,101,VALID,1.20533,
2000-11-23, 03:18:00,VALID,915.36,VALID,0,VALID,100,VALID,0.0169808,VALID,18.5707,VALID,159,VALID,0.95,
2000-11-23, 03:19:00,VALID,915.333,VALID,0,VALID,100,VALID,0.0169808,VALID,18.5611,VALID,97,VALID,2.54181,
2000-11-23, 03:20:00,VALID,915.281,VALID,0.2,VALID,100,VALID,0.0169808,VALID,18.5581,VALID,171,VALID,1.17168,
2000-11-23, 03:21:00,VALID,915.328,VALID,0,VALID,100,VALID,0.0339617,VALID,18.5447,VALID,225,VALID,1.09555,
2000-11-23, 03:22:00,VALID,915.323,VALID,0,VALID,100,VALID,0,VALID,18.5389,VALID,84,VALID,1.34334,
2000-11-23, 03:23:00,VALID,915.297,VALID,0,VALID,100,VALID,0.0169808,VALID,18.5417,VALID,80,VALID,1.50441,
2000-11-23, 03:24:00,VALID,915.277,VALID,0,VALID,100,VALID,0.0169808,VALID,18.5419,VALID,347,VALID,0.643092,
2000-11-23, 03:25:00,VALID,915.336,VALID,0,VALID,100,VALID,0,VALID,18.5352,VALID,18,VALID,1.13341,
2000-11-23, 03:26:00,VALID,915.362,VALID,0,VALID,100,VALID,0.0339617,VALID,18.5389,VALID,103,VALID,2.10684,
2000-11-23, 03:27:00,VALID,915.384,VALID,0.2,VALID,100,VALID,0,VALID,18.5292,VALID,63,VALID,1.05194,
2000-11-23, 03:28:00,VALID,915.44,VALID,0,VALID,100,VALID,0,VALID,18.5253,VALID,45,VALID,1.00645,
2000-11-23, 03:29:00,VALID,915.46,VALID,0,VALID,100,VALID,0.0169808,VALID,18.5255,VALID,119,VALID,0.753005,
2000-11-23, 03:30:00,VALID,915.458,VALID,0.2,VALID,100,VALID,0.0339617,VALID,18.5325,VALID,226,VALID,0.619038,
2000-11-23, 03:31:00,VALID,915.494,VALID,0,VALID,100,VALID,0.0339617,VALID,18.5191,VALID,252,VALID,1.01122,
2000-11-23, 03:32:00,VALID,915.492,VALID,0.2,VALID,100,VALID,0.0169808,VALID,18.5124,VALID,280,VALID,0.789063,
2000-11-23, 03:33:00,VALID,915.569,VALID,0,VALID,100,VALID,0.0169808,VALID,18.5156,VALID,200,VALID,1.57612,
2000-11-23, 03:34:00,VALID,915.519,VALID,0.2,VALID,100,VALID,0,VALID,18.5191,VALID,70,VALID,1.17891,
2000-11-23, 03:35:00,VALID,915.568,VALID,0,VALID,100,VALID,0.0339617,VALID,18.5161,VALID,294,VALID,1.35367,
2000-11-23, 03:36:00,VALID,915.566,VALID,0,VALID,100,VALID,0,VALID,18.5195,VALID,63,VALID,1.75,
2000-11-23, 03:37:00,VALID,915.556,VALID,0.2,VALID,100,VALID,0.0169808,VALID,18.5258,VALID,353,VALID,0.899038,
2000-11-23, 03:38:00,VALID,915.576,VALID,0.2,VALID,100,VALID,0,VALID,18.5158,VALID,254,VALID,0.894737,
2000-11-23, 03:39:00,VALID,915.577,VALID,0.2,VALID,100,VALID,0,VALID,18.5029,VALID,285,VALID,1.13462,
2000-11-23, 03:40:00,VALID,915.561,VALID,0.2,VALID,100,VALID,0.0339617,VALID,18.5258,VALID,258,VALID,1.27323,
2000-11-23, 03:41:00,VALID,915.59,VALID,0.2,VALID,100,VALID,0.0339617,VALID,18.5258,VALID,316,VALID,1.42488,
2000-11-23, 03:42:00,VALID,915.602,VALID,0,VALID,100,VALID,0.0339617,VALID,18.5253,VALID,4,VALID,0.80625,
2000-11-23, 03:43:00,VALID,915.64,VALID,0,VALID,100,VALID,0,VALID,18.5389,VALID,295,VALID,1.36655,